Ana Sayfa
METAR-TAF:

METAR-TAF

Havaalanları :

Brown Field Municipal Airport

San Diego, Kaliforniya, Amerika Birleşik Devletleri

Enlem: 32-34-31N, Boylam: 116-59-35W, yükseklik: 164 m

Güncel hava durumu gözlemi

Rapor saat 07:53 UTC de 30 dakika önce yapıldı.
Sakin rüzgar
Sıcaklık 11°C
Nem 87%
Basınç 1021 hPa
Görüş mesafesi: 16.1 km
3900 ft yükseklikte parçalı çok bulutlu

METAR: KSDM 300753Z AUTO 00000KT 10SM BKN039 11/09 A3016 RMK AO2 SLP210 T01110089 401780067 $

Saat: 01:23 (08:23 UTC)


TAF: eksik

4.000'den fazla havaalanı için hava durumu gözlemleri ve tahminleri (METAR ve TAF raporları).

Kullanılabilir istasyonlar harita üzerinde sarı ve kırmızı noktalarla gösterilir.

İstasyonun adını görmek için fareyi noktanın üzerinde gezdirin.

Sonrasında hava gözlem ve tahminlerini görmek için tıklayın.

Haritayı değiştirmek için: yaklaştırmak için siyah artı işaretli yeşil düğmeye ve uzaklaştırmak için de eksi işaretli düğmeye hızla tıklayın; bitişik haritalar için yeşil okları kullanın.


METAR-TAF: